Grand Marais, MN

2:06 AM CDT on September 30, 2016 (GMT -0500)
Grand Marais

Weather History for KGNA - May, 2013

Change the Weather History Date:

Saturday, May 4, 2013

  Actual Average (KCKC) Record (KCKC)
Temperature  
Mean Temperature 35 °F -  
Max Temperature 39 °F 52 °F 71 °F (1999)
Min Temperature 33 °F 32 °F 24 °F (2008)
Degree Days  
Heating Degree Days 30    
Moisture  
Dew Point 33 °F    
Average Humidity 89    
Maximum Humidity 93    
Minimum Humidity 82    
Precipitation  
Precipitation 0.15 in - - ()
Sea Level Pressure  
Sea Level Pressure 30.28 in    
Wind  
Wind Speed 0 mph (WSW)    
Max Wind Speed 6 mph    
Max Gust Speed -    
Averages and records for this station are not official NWS values.
T = Trace of Precipitation, MM = Missing Value Source: NWS Daily Summary

Daily Weather History Graph

Daily Weather History Graph

Search for Another Location

Airport or City:

Trip Planner

Search our weather history database for the weather conditions in past years. The results will help you decide how hot, cold, wet, or windy it might be!

Date:

Astronomy

May. 04, 2013 Rise Set
Actual Time 5:38 AM CDT 8:18 PM CDT
Civil Twilight 5:03 AM CDT 8:53 PM CDT
Nautical Twilight 4:19 AM CDT 9:38 PM CDT
Astronomical Twilight 3:27 AM CDT 10:30 PM CDT
Moon 3:00 AM CDT (5/4) 2:55 PM CDT (5/4)
Length of Visible Light 15h 49m
Length of Day
14h 39m
Waning Crescent, 27% of the Moon is Illuminated
May 4
Waning Crescent
May 9
New
May 17
First Quarter
May 24
Full
May 31
Last Quarter

Hourly Weather History & Observations

Time (CDT) Temp. Windchill Dew Point Humidity Pressure Visibility Wind Dir Wind Speed Gust Speed Precip Events Conditions
12:56 AM 34.0 °F - 28.9 °F 82% 30.29 in - Calm Calm - N/A   Unknown
1:56 AM 34.0 °F - 30.9 °F 89% 30.28 in - Calm Calm - N/A   Unknown
2:56 AM 33.1 °F - 30.9 °F 92% 30.27 in - Calm Calm - 0.04 in   Unknown
3:56 AM 33.1 °F - 30.9 °F 92% 30.27 in - Calm Calm - 0.04 in   Unknown
4:56 AM 34.0 °F - 30.9 °F 89% 30.27 in - Calm Calm - 0.03 in   Unknown
5:56 AM 34.0 °F - 32.0 °F 92% 30.27 in - Calm Calm - N/A   Unknown
6:56 AM 34.0 °F - 32.0 °F 92% 30.28 in - Calm Calm - N/A   Unknown
7:56 AM 35.1 °F - 32.0 °F 89% 30.28 in - Calm Calm - N/A   Unknown
8:56 AM 35.1 °F - 33.1 °F 92% 30.28 in - Calm Calm - N/A   Unknown
9:56 AM 36.0 °F 31.1 °F 33.1 °F 89% 30.29 in - WSW 5.8 mph - 0.01 in   Unknown
10:56 AM 36.0 °F - 34.0 °F 93% 30.30 in - Calm Calm - 0.01 in   Unknown
11:56 AM 36.0 °F - 34.0 °F 93% 30.30 in - Calm Calm - N/A   Unknown
12:56 PM 37.0 °F - 34.0 °F 89% 30.29 in - Calm Calm - 0.02 in   Unknown
1:56 PM 37.9 °F - 35.1 °F 89% 30.28 in - Calm Calm - N/A   Unknown
2:56 PM 37.9 °F - 35.1 °F 89% 30.28 in - Calm Calm - N/A   Unknown
3:56 PM 37.0 °F - 34.0 °F 89% 30.28 in - Calm Calm - N/A   Unknown
4:56 PM 37.9 °F - 34.0 °F 86% 30.27 in - Calm Calm - N/A   Unknown
5:56 PM 37.9 °F - 33.1 °F 83% 30.27 in - Calm Calm - N/A   Unknown
6:56 PM 37.9 °F - 34.0 °F 86% 30.29 in - Calm Calm - N/A   Unknown
7:56 PM 37.9 °F - 34.0 °F 86% 30.29 in - Calm Calm - N/A   Unknown
8:56 PM 37.9 °F - 34.0 °F 86% 30.29 in - Calm Calm - N/A   Unknown
9:56 PM 37.0 °F - 34.0 °F 89% 30.30 in - Calm Calm - N/A   Unknown
10:56 PM 37.0 °F - 35.1 °F 93% 30.29 in - Calm Calm - N/A   Unknown
11:56 PM 37.0 °F - 35.1 °F 93% 30.28 in - Calm Calm - N/A   Unknown